カタログに戻る

STARLINK-4022

運用中通信VLEO
NORAD 52629·PAYLOAD·🇺🇸 United States

打ち上げ May 14, 2022 から Cape Canaveral Space Force Station

Loading…

次のパス (今後24時間)

TLE

最新Source: CelesTrak SupGP

元期: Sep 14, 2026, 22:05 UTC

1 52629C 22052AH  26257.92062500 -.00018936  00000+0 -11876-2 0  2571
2 52629  53.1580 138.9641 0001646  87.2111  79.9627 15.08841509    19

AllMySatでSTARLINK-4022をリアルタイム追跡

Download on the App Store